Du Bois, PA

2:39 AM EST on February 23, 2018 (GMT -0500)
Du Bois-Jefferson County

Weather History for KDUJ - November, 2011

Change the Weather History Date:

Thursday, November 24, 2011

  Actual Average Record
Temperature  
Mean Temperature 37 °F 36 °F  
Max Temperature 43 °F 43 °F 67 °F (2014)
Min Temperature 31 °F 29 °F 9 °F (2005)
Degree Days  
Heating Degree Days 28 29  
Month to date heating degree days 486 592  
Since 1 July heating degree days 811 1335  
Cooling Degree Days 0 0  
Month to date cooling degree days 0 0  
Year to date cooling degree days 0 362  
Moisture  
Dew Point 33 °F    
Average Humidity 88    
Maximum Humidity 100    
Minimum Humidity 76    
Precipitation  
Precipitation 0.00 in 0.13 in 0.73 in (2008)
Month to date precipitation 2.88 2.95  
Year to date precipitation 39.34  
Sea Level Pressure  
Sea Level Pressure 30.22 in    
Wind  
Wind Speed 9 mph (WSW)    
Max Wind Speed 15 mph    
Max Gust Speed 18 mph    
Visibility 4 miles    
Events Fog    
T = Trace of Precipitation, MM = Missing Value Source: NWS Daily Summary

Daily Weather History Graph

Daily Weather History Graph

Search for Another Location

Airport or City:

Trip Planner

Search our weather history database for the weather conditions in past years. The results will help you decide how hot, cold, wet, or windy it might be!

Date:

Astronomy

Nov. 24, 2011 Rise Set
Actual Time 7:13 AM EST 4:50 PM EST
Civil Twilight 6:43 AM EST 5:20 PM EST
Nautical Twilight 6:09 AM EST 5:54 PM EST
Astronomical Twilight 5:36 AM EST 6:27 PM EST
Moon 6:29 AM EST (11/24) 4:19 PM EST (11/24)
Length of Visible Light 10h 37m
Length of Day
9h 36m
Waning Crescent, 0% of the Moon is Illuminated
Nov 24
Waning Crescent
Nov 25
New
Dec 2
First Quarter
Dec 10
Full
Dec 17
Last Quarter

Hourly Weather History & Observations

Time (EST) Temp. Windchill Dew Point Humidity Pressure Visibility Wind Dir Wind Speed Gust Speed Precip Events Conditions
12:35 AM 33.8 °F 24.8 °F 33.8 °F 100% 30.14 in 0.8 mi West 12.7 mph 18.4 mph N/A   Mist
12:56 AM 33.1 °F 25.5 °F 33.1 °F 100% 30.18 in 0.5 mi West 9.2 mph - N/A Fog Fog
1:56 AM 33.1 °F 25.5 °F 33.1 °F 100% 30.19 in 0.8 mi West 9.2 mph - N/A   Mist
2:10 AM 33.8 °F 27.0 °F 33.8 °F 100% 30.14 in 1.0 mi West 8.1 mph - N/A   Mist
2:19 AM 33.8 °F 26.4 °F 33.8 °F 100% 30.15 in 0.8 mi West 9.2 mph - N/A   Mist
2:36 AM 33.8 °F 27.0 °F 33.8 °F 100% 30.15 in 0.2 mi WSW 8.1 mph - N/A Fog Fog
3:56 AM 32.0 °F 24.2 °F 32.0 °F 100% 30.20 in 0.2 mi WSW 9.2 mph - N/A Fog Fog
4:13 AM 32.0 °F 24.2 °F 32.0 °F 100% 30.16 in 0.5 mi WSW 9.2 mph - N/A Fog Fog
4:26 AM 32.0 °F 24.2 °F 32.0 °F 100% 30.16 in 0.2 mi WSW 9.2 mph - N/A Fog Fog
4:56 AM 32.0 °F 24.8 °F 32.0 °F 100% 30.21 in 0.2 mi WSW 8.1 mph - N/A Fog Fog
5:49 AM 30.2 °F 23.4 °F 30.2 °F 100% 30.17 in 0.5 mi WSW 6.9 mph - N/A Fog Light Freezing Fog
5:56 AM 32.0 °F 26.4 °F 30.9 °F 96% 30.22 in 1.0 mi WSW 5.8 mph - N/A   Overcast
6:02 AM 32.0 °F 25.6 °F 30.2 °F 93% 30.18 in 2.0 mi WSW 6.9 mph - N/A   Overcast
6:16 AM 32.0 °F 26.4 °F 30.2 °F 93% 30.18 in 1.2 mi WSW 5.8 mph - N/A   Overcast
6:27 AM 32.0 °F 25.6 °F 32.0 °F 100% 30.18 in 3.0 mi WSW 6.9 mph - N/A   Overcast
6:47 AM 32.0 °F 25.6 °F 32.0 °F 100% 30.19 in 1.8 mi West 6.9 mph - N/A   Overcast
6:56 AM 32.0 °F 25.6 °F 32.0 °F 100% 30.25 in 0.8 mi West 6.9 mph - N/A   Mist
7:18 AM 32.0 °F 23.6 °F 32.0 °F 100% 30.21 in 1.2 mi West 10.4 mph - N/A   Overcast
7:53 AM 32.0 °F 23.6 °F 32.0 °F 100% 30.22 in 1.8 mi WSW 10.4 mph - N/A   Overcast
8:18 AM 32.0 °F 24.8 °F 32.0 °F 100% 30.23 in 2.5 mi West 8.1 mph - N/A   Overcast
8:33 AM 32.0 °F 23.6 °F 30.2 °F 93% 30.23 in 4.0 mi West 10.4 mph - N/A   Overcast
8:48 AM 32.0 °F 23.0 °F 32.0 °F 100% 30.23 in 2.5 mi West 11.5 mph - N/A   Overcast
8:56 AM 32.0 °F 23.0 °F 32.0 °F 100% 30.29 in 3.0 mi West 11.5 mph - N/A   Overcast
9:19 AM 32.0 °F 24.2 °F 32.0 °F 100% 30.24 in 2.0 mi WSW 9.2 mph - N/A   Overcast
9:44 AM 32.0 °F 24.2 °F 32.0 °F 100% 30.25 in 3.0 mi WSW 9.2 mph - N/A   Overcast
9:56 AM 33.1 °F 24.9 °F 33.1 °F 100% 30.30 in 3.0 mi WSW 10.4 mph - N/A   Overcast
10:11 AM 33.8 °F 26.4 °F 33.8 °F 100% 30.25 in 2.0 mi WSW 9.2 mph - N/A   Overcast
10:20 AM 33.8 °F 27.0 °F 33.8 °F 100% 30.25 in 1.8 mi West 8.1 mph - N/A   Overcast
10:28 AM 33.8 °F 27.7 °F 33.8 °F 100% 30.26 in 3.0 mi West 6.9 mph - N/A   Overcast
10:39 AM 33.8 °F 26.4 °F 33.8 °F 100% 30.26 in 2.5 mi WSW 9.2 mph - N/A   Overcast
10:53 AM 33.8 °F 27.0 °F 33.8 °F 100% 30.26 in 4.0 mi West 8.1 mph - N/A   Overcast
10:56 AM 33.8 °F 27.0 °F 33.8 °F 100% 30.26 in 4.0 mi West 8.1 mph - N/A   Overcast
11:56 AM 35.1 °F 27.4 °F 34.0 °F 96% 30.30 in 5.0 mi WSW 10.4 mph - N/A   Overcast
12:47 PM 35.6 °F 28.6 °F 33.8 °F 93% 30.24 in 7.0 mi WSW 9.2 mph - N/A   Overcast
12:56 PM 37.0 °F 30.4 °F 35.1 °F 93% 30.29 in 7.0 mi WSW 9.2 mph - N/A   Overcast
1:56 PM 39.2 °F 31.6 °F 35.6 °F 87% 30.23 in 10.0 mi WSW 12.7 mph - N/A   Mostly Cloudy
2:08 PM 39.2 °F 32.5 °F 35.6 °F 87% 30.23 in 10.0 mi WSW 10.4 mph - N/A   Scattered Clouds
2:56 PM 43.0 °F 37.7 °F 36.0 °F 76% 30.25 in 10.0 mi WSW 9.2 mph - N/A   Clear
3:56 PM 43.0 °F 38.8 °F 35.1 °F 74% 30.25 in 10.0 mi SW 6.9 mph - N/A   Clear
4:56 PM 39.9 °F 33.4 °F 34.0 °F 79% 30.25 in 10.0 mi SW 10.4 mph - N/A   Clear
5:56 PM 37.9 °F 33.5 °F 33.1 °F 83% 30.25 in 10.0 mi SW 5.8 mph - N/A   Clear
6:56 PM 37.4 °F 32.1 °F 33.8 °F 87% 30.20 in 10.0 mi SW 6.9 mph - N/A   Clear
7:56 PM 37.0 °F 30.4 °F 34.0 °F 89% 30.25 in 10.0 mi SW 9.2 mph - N/A   Clear
8:56 PM 36.0 °F 28.0 °F 34.0 °F 93% 30.25 in 10.0 mi SW 11.5 mph - N/A   Clear
9:56 PM 35.1 °F 26.4 °F 33.1 °F 92% 30.25 in 8.0 mi SW 12.7 mph - N/A   Partly Cloudy
10:15 PM 35.6 °F 27.5 °F 33.8 °F 93% 30.21 in 7.0 mi WSW 11.5 mph - N/A   Mostly Cloudy
10:56 PM 35.1 °F 26.9 °F 34.0 °F 96% 30.26 in 6.0 mi SW 11.5 mph - N/A   Overcast
11:56 PM 35.1 °F 27.4 °F 34.0 °F 96% 30.26 in 6.0 mi SW 10.4 mph - N/A   Overcast